Regional Weather Roundup
Issued by NWS Upton, NY

Current Version | Previous Version | Graphics & Text | Print | Product List | Glossary Off
Versions: 1 2 3 4 5 6 7 8 9 10 11 12 13 14 15 16 17 18 19 20 21 22 23 24 25 26 27
000 ASUS41 KOKX 170008 RWROKX REGIONAL WEATHER ROUNDUP NATIONAL WEATHER SERVICE NEW YORK NY 700 PM EST MON JAN 16 2017 NOTE: "FAIR" INDICATES FEW OR NO CLOUDS BELOW 12,000 FEET WITH NO SIGNIFICANT WEATHER AND/OR OBSTRUCTIONS TO VISIBILITY. NYZ071-072-176-178-NJZ106-104-170100- NEW YORK CITY METRO AREA CITY SKY/WX TMP DP RH WIND PRES REMARKS Central Park CLOUDY 41 24 51 W5 30.36S Wall St Helipt PTCLDY 41 29 62 W5 30.36S Bronx Bot Gard NOT AVBL LaGuardia APRT MOCLDY 43 25 49 SW7 30.34F Kennedy INTL MOCLDY 38 27 64 SW10 30.36F WCI 31 Breezy Point N/A 39 N/A N/A SW7 N/A WCI 34 Newark/Liberty CLOUDY 41 24 51 SW9 30.34F Teterboro PTCLDY 40 24 53 VRB3 30.34S $$ NYZ177-179-078>081-170100- LONG ISLAND NEW YORK CITY SKY/WX TMP DP RH WIND PRES REMARKS Jones Beach N/A 39 N/A N/A SW7 N/A WCI 34 Matinecock PT NOT AVBL Farmingdale CLOUDY 36 28 73 SW5 30.35S WCI 32 MacArthur/ISP CLOUDY 33 28 81 SW5 30.34F WCI 29 Shirley CLEAR 33 29 85 SW5 30.35F WCI 29 Westhampton CLEAR 27 22 81 CALM 30.36F Southampton NOT AVBL Bridgehampton NOT AVBL East Hampton N/A 33 27 77 SW5 30.33F WCI 29 Montauk N/A 37 28 70 SW6 30.34F WCI 32 $$ NYZ052-065-067-170100- HUDSON VALLEY CITY SKY/WX TMP DP RH WIND PRES REMARKS White Plains PTCLDY 37 22 54 SW5 30.31S WCI 33 Newburgh MOCLDY 36 23 60 W9 30.31F WCI 29 Montgomery PTCLDY 36 24 62 SW9 30.29S WCI 29 Poughkeepsie CLOUDY 31 22 69 CALM 30.30F Albany CLOUDY 30 19 63 CALM 30.29F $$ NJZ001-105-106-008-010-013-015-019>022-104-170100- NEW JERSEY CITY SKY/WX TMP DP RH WIND PRES REMARKS Newark/Liberty CLOUDY 41 24 51 SW9 30.34F Teterboro PTCLDY 40 24 53 VRB3 30.34S Caldwell CLOUDY 35 23 61 CALM 30.34F Somerville CLOUDY 39 23 52 CALM 30.32F Linden CLOUDY 40 23 50 CALM 30.35S Sussex CLOUDY 31 24 75 CALM 30.32S Andover N/A 31 25 78 CALM 30.32S Trenton CLOUDY 39 25 57 SW6 30.34F WCI 35 Millville CLOUDY 37 25 61 CALM 30.37F Atlantic City CLOUDY 40 27 59 SW5 30.37F Wrightstown CLOUDY 39 23 52 SW8 30.33F WCI 34 Toms River CLOUDY 36 27 69 CALM 30.37F Belmar CLOUDY 36 26 67 S5 30.36F WCI 32 $$ PAZ047>061-062-071-170100- EASTERN PENNSYLVANIA CITY SKY/WX TMP DP RH WIND PRES REMARKS Philadelphia CLOUDY 39 25 57 S5 30.37F Allentown CLOUDY 38 24 57 W7 30.34F WCI 33 Scranton CLOUDY 36 28 73 SW3 30.29S $$ CTZ002-004>006-009-010-012-RIZ004-006-007-MAZ004-011-015-170100- SOUTHERN NEW ENGLAND IN CT CITY SKY/WX TMP DP RH WIND PRES REMARKS Bradley INTL PTCLDY 36 20 52 S9 30.30S WCI 29 Hartford PTCLDY 33 22 63 S7 30.32S WCI 27 Danbury PTCLDY 27 21 78 SW5 30.31F WCI 22 Wtrbury/Oxford MOCLDY 34 19 55 SW5 30.30F WCI 30 Bridgeport CLOUDY 38 29 70 SW12 30.33F WCI 30 Meriden CLOUDY 32 23 69 CALM 30.32F New Haven MOCLDY 37 28 70 SW6 30.33S WCI 32 Chester N/A 34 23 64 CALM 30.31S Groton CLOUDY 37 27 67 SW9 30.32F WCI 30 Wilimantic CLOUDY 34 21 59 S3 30.32S IN RI CITY SKY/WX TMP DP RH WIND PRES REMARKS Providence MOCLDY 34 19 54 SW7 30.32R WCI 28 Block Island NOT AVBL Westerly PTCLDY 37 25 61 SW6 30.33S WCI 32 IN MA CITY SKY/WX TMP DP RH WIND PRES REMARKS Boston CLOUDY 37 18 46 SW13 30.26F WCI 29 Worcester PTCLDY 33 16 49 W17 30.23S WCI 22 Westfield MOCLDY 30 19 63 S3 30.28F Provincetown CLOUDY 36 26 67 SW21 30.28S WCI 25 Nantucket CLEAR 38 31 76 W15 30.31S WCI 29 $$ ANZ330-335-338-340-345-350-353-355-170100- COASTAL MARINE OBSERVATIONS STATION/POSITION TIME SKY/WX TEMP WIND PRES VSBY WAVE AIR SEA DIR/SP/G HT/PER (UTC) (F) (DEG/KT/KT) (MB) (MI) (FT/S) NY HARB ENTRANCE 2250 41 44 220/ 14/ 16 1027.9 2/10 20 S FIRE ISLAND 2350 41 45 230/ 12/ 14 1027.8 2/ 9 GREAT SOUTH BAY NOT AVBL 23 SSW MONTAUK P 2250 41 48 240/ 14/ 17 1028.0 2/ 9 15 E BARNEGAT LI 2330 46 N/A 2/10 HUDSON CANYON 2250 45 53 1028.8 2/11 KINGS POINT 2342 39 39 1027.1 EXECUTION ROCKS 2345 39 200/ 8/ 10 N/A CENTRAL LI SOUND 2300 39 210/ 14/ 16 N/A 1/25 EASTERN LI SOUND NOT AVBL ROBBINS REEF 2342 40 200/ 6/ 7 1027.7 $$ >>>>>>>>>>>>>>>>>>>>>>>>>>>> KEY <<<<<<<<<<<<<<<<<<<<<<<<<<< > < > SKY/WX - Sky Condition/Present Weather < > TMP - Temperature in Fahrenheit < > DP - Dew Point in Fahrenheit < > RH - Relative Humidity in Percent < > WIND - Direction (from) and Speed in MPH < > PRES - Mean Sea Level Pressure (inches of Hg) < > WCI - Wind Chill Index < > VSB - VISIBILITY IN MILES < > HX - HEAT INDEX < > TC - TEMPERATURE IN CELSIUS < > VRB - VARIABLE WIND DIRECTION < > < >>>>>>>>>>>>>>>>>>>>>>>>>>>> KEY <<<<<<<<<<<<<<<<<<<<<<<<<<<

USA.gov is the U.S. government's official web portal to all federal, state and local government web resources and services.